Weather History for KPHD - August, 2015

Change the Weather History Date:

Monday, August 24, 2015

  Actual Average Record
Temperature  
Mean Temperature 66 °F 71 °F  
Max Temperature 79 °F 82 °F 96 °F (1968)
Min Temperature 53 °F 59 °F 43 °F (1971)
Degree Days  
Heating Degree Days 0 0  
Month to date heating degree days 1 0  
Since 1 June heating degree days 24 38  
Since 1 July heating degree days 1 3  
Cooling Degree Days 1 6  
Month to date cooling degree days 126 164  
Year to date cooling degree days 693 584  
Since 1 June cooling degree days 532 541  
Growing Degree Days 17 (Base 50)    
Moisture  
Dew Point 57 °F    
Average Humidity 69    
Maximum Humidity 97    
Minimum Humidity 40    
Precipitation  
Precipitation T in 0.12 in 2.18 in (1998)
Month to date precipitation 0.13 2.66  
Year to date precipitation 21.60 26.02  
Sea Level Pressure  
Sea Level Pressure 29.92 in    
Wind  
Wind Speed 5 mph (West)    
Max Wind Speed 17 mph    
Max Gust Speed 22 mph    
Visibility 10 miles    
Events Rain    
T = Trace of Precipitation, MM = Missing Value Source: NWS Daily Summary

Daily Weather History Graph

Daily Weather History Graph

Search for Another Location

Airport or City:

Trip Planner

Search our weather history database for the weather conditions in past years. The results will help you decide how hot, cold, wet, or windy it might be!

Date:

Astronomy

Aug. 24, 2015 Rise Set
Actual Time 6:44 AM EDT 8:10 PM EDT
Civil Twilight 6:16 AM EDT 8:38 PM EDT
Nautical Twilight 5:42 AM EDT 9:13 PM EDT
Astronomical Twilight 5:05 AM EDT 9:49 PM EDT
Moon 4:01 PM EDT (8/24) 1:19 AM EDT (8/24)
Length of Visible Light 14h 22m
Length of Day
13h 25m
Waxing Gibbous, 69% of the Moon is Illuminated
Aug 24
Waxing Gibbous
Aug 29
Full
Sep 5
Last Quarter
Sep 13
New
Sep 21
First Quarter

Hourly Weather History & Observations

Time (EDT) Temp. Dew Point Humidity Pressure Visibility Wind Dir Wind Speed Gust Speed Precip Events Conditions
12:53 AM 71.1 °F 64.9 °F 81% 29.86 in 10.0 mi South 3.5 mph - 0.00 in   Partly Cloudy
1:53 AM 71.1 °F 64.9 °F 81% 29.87 in 10.0 mi WNW 3.5 mph - 0.00 in Rain Light Rain
2:32 AM 70.0 °F 66.9 °F 90% 29.89 in 7.0 mi Calm Calm - 0.00 in Rain Light Rain
2:53 AM 69.1 °F 68.0 °F 96% 29.88 in 7.0 mi WSW 4.6 mph - 0.00 in Rain Light Rain
3:06 AM 69.1 °F 68.0 °F 96% 29.90 in 10.0 mi West 4.6 mph - 0.00 in   Overcast
3:36 AM 69.1 °F 66.9 °F 93% 29.89 in 10.0 mi WNW 4.6 mph - 0.00 in   Overcast
3:53 AM 69.1 °F 66.0 °F 90% 29.88 in 10.0 mi WNW 10.4 mph - 0.00 in   Overcast
4:22 AM 66.0 °F 57.9 °F 75% 29.92 in 10.0 mi NW 8.1 mph - N/A   Overcast
4:53 AM 64.9 °F 57.0 °F 75% 29.90 in 10.0 mi NNW 8.1 mph - N/A   Overcast
5:04 AM 64.9 °F 57.0 °F 75% 29.91 in 10.0 mi NW 8.1 mph - N/A   Overcast
5:53 AM 63.0 °F 55.9 °F 78% 29.91 in 10.0 mi Calm Calm - N/A   Partly Cloudy
6:53 AM 57.0 °F 55.0 °F 93% 29.92 in 10.0 mi Calm Calm - N/A   Clear
7:53 AM 60.1 °F 57.9 °F 93% 29.95 in 10.0 mi Calm Calm - N/A   Clear
8:53 AM 66.0 °F 57.0 °F 73% 29.95 in 10.0 mi WNW 3.5 mph - N/A   Clear
9:53 AM 69.1 °F 55.9 °F 63% 29.96 in 10.0 mi Variable 3.5 mph - N/A   Clear
10:53 AM 72.0 °F 54.0 °F 53% 29.96 in 10.0 mi West 9.2 mph - N/A   Partly Cloudy
11:53 AM 73.9 °F 53.1 °F 48% 29.96 in 10.0 mi WSW 8.1 mph - N/A   Scattered Clouds
12:53 PM 75.9 °F 52.0 °F 43% 29.95 in 10.0 mi West 10.4 mph 16.1 mph N/A   Partly Cloudy
1:53 PM 73.9 °F 52.0 °F 46% 29.93 in 10.0 mi West 6.9 mph - N/A   Mostly Cloudy
2:53 PM 77.0 °F 53.1 °F 43% 29.92 in 10.0 mi Variable 6.9 mph - N/A   Partly Cloudy
3:53 PM 77.0 °F 51.1 °F 40% 29.91 in 10.0 mi WSW 8.1 mph - N/A   Mostly Cloudy
4:53 PM 75.9 °F 51.1 °F 42% 29.90 in 10.0 mi WSW 9.2 mph - N/A   Mostly Cloudy
5:53 PM 75.0 °F 51.1 °F 43% 29.91 in 10.0 mi WSW 11.5 mph 18.4 mph N/A   Mostly Cloudy
6:53 PM 73.0 °F 51.1 °F 46% 29.91 in 10.0 mi West 8.1 mph - N/A   Partly Cloudy
7:53 PM 70.0 °F 51.1 °F 51% 29.92 in 10.0 mi West 5.8 mph - N/A   Partly Cloudy
8:53 PM 64.9 °F 52.0 °F 63% 29.94 in 10.0 mi Calm Calm - N/A   Scattered Clouds
9:53 PM 60.1 °F 53.1 °F 78% 29.96 in 10.0 mi Calm Calm - N/A   Partly Cloudy
10:53 PM 57.0 °F 53.1 °F 87% 29.96 in 10.0 mi Calm Calm - N/A   Mostly Cloudy
11:53 PM 55.9 °F 53.1 °F 90% 29.96 in 10.0 mi Calm Calm - N/A   Scattered Clouds